Beaufort, NC

2:22 PM EST on January 22, 2018 (GMT -0500)
Smith

Weather History for KMRH - July, 2013

Change the Weather History Date:

Thursday, July 18, 2013

  Actual Average Record
Temperature  
Mean Temperature 81 °F -  
Max Temperature 89 °F 87 °F 97 °F (1983)
Min Temperature 75 °F 71 °F 61 °F (1987)
Cooling Degree Days 16    
Growing Degree Days 31 (Base 50)    
Moisture  
Dew Point 73 °F    
Average Humidity 75    
Maximum Humidity 94    
Minimum Humidity 51    
Precipitation  
Precipitation 0.00 in - - ()
Sea Level Pressure  
Sea Level Pressure 30.13 in    
Wind  
Wind Speed 5 mph (WSW)    
Max Wind Speed 14 mph    
Max Gust Speed -    
Visibility 10 miles    
Events      
Averages and records for this station are not official NWS values.
T = Trace of Precipitation, MM = Missing Value Source: NWS Daily Summary

Daily Weather History Graph

Daily Weather History Graph

Search for Another Location

Airport or City:

Trip Planner

Search our weather history database for the weather conditions in past years. The results will help you decide how hot, cold, wet, or windy it might be!

Date:

Astronomy

Jul. 18, 2013 Rise Set
Actual Time 6:06 AM EDT 8:18 PM EDT
Civil Twilight 5:38 AM EDT 8:47 PM EDT
Nautical Twilight 5:03 AM EDT 9:22 PM EDT
Astronomical Twilight 4:25 AM EDT 10:00 PM EDT
Moon 4:14 PM EDT (7/18) 1:53 AM EDT (7/18)
Length of Visible Light 15h 09m
Length of Day
14h 11m
Waxing Gibbous, 77% of the Moon is Illuminated
Jul 18
Waxing Gibbous
Jul 22
Full
Jul 29
Last Quarter
Aug 6
New
Aug 14
First Quarter

Hourly Weather History & Observations

Time (EDT) Temp. Heat Index Dew Point Humidity Pressure Visibility Wind Dir Wind Speed Gust Speed Precip Events Conditions
12:58 AM 75.9 °F - 73.0 °F 91% 30.14 in 9.0 mi Calm Calm - N/A   Clear
1:58 AM 77.0 °F - 73.9 °F 90% 30.13 in 10.0 mi WNW 3.5 mph - N/A   Clear
2:58 AM 78.1 °F - 75.0 °F 90% 30.12 in 9.0 mi NNW 6.9 mph - N/A   Clear
3:58 AM 77.0 °F - 75.0 °F 94% 30.12 in 8.0 mi NW 5.8 mph - N/A   Clear
4:58 AM 77.0 °F - 73.9 °F 90% 30.13 in 8.0 mi NNW 5.8 mph - N/A   Clear
5:58 AM 75.0 °F - 73.0 °F 94% 30.13 in 8.0 mi North 3.5 mph - N/A   Clear
6:58 AM 75.9 °F - 73.9 °F 94% 30.14 in 7.0 mi Calm Calm - N/A   Clear
7:58 AM 81.0 °F 84.9 °F 71.1 °F 72% 30.14 in 10.0 mi NW 5.8 mph - N/A   Clear
8:58 AM 84.0 °F 88.4 °F 70.0 °F 63% 30.14 in 10.0 mi NNW 4.6 mph - N/A   Clear
9:58 AM 86.0 °F 88.8 °F 66.9 °F 53% 30.14 in 10.0 mi Calm Calm - N/A   Clear
10:58 AM 87.1 °F 89.9 °F 66.9 °F 51% 30.15 in 10.0 mi SSW 3.5 mph - N/A   Clear
11:58 AM 86.0 °F 92.2 °F 72.0 °F 63% 30.15 in 10.0 mi South 10.4 mph - N/A   Clear
12:58 PM 87.1 °F 91.3 °F 69.1 °F 55% 30.14 in 10.0 mi South 4.6 mph - N/A   Clear
1:58 PM 87.1 °F 92.8 °F 71.1 °F 59% 30.14 in 10.0 mi South 10.4 mph - N/A   Clear
2:58 PM 86.0 °F 92.2 °F 72.0 °F 63% 30.12 in 10.0 mi South 13.8 mph - N/A   Clear
3:58 PM 86.0 °F 92.2 °F 72.0 °F 63% 30.11 in 10.0 mi SSW 11.5 mph - N/A   Clear
4:58 PM 84.9 °F 90.7 °F 72.0 °F 65% 30.10 in 10.0 mi SSW 12.7 mph - N/A   Clear
5:58 PM 84.9 °F 90.7 °F 72.0 °F 65% 30.09 in 10.0 mi SW 9.2 mph - N/A   Clear
6:58 PM 82.9 °F 89.4 °F 73.9 °F 74% 30.09 in 10.0 mi SSW 10.4 mph - N/A   Clear
7:58 PM 82.0 °F 87.9 °F 73.9 °F 76% 30.10 in 10.0 mi SSW 11.5 mph - N/A   Clear
8:58 PM 82.0 °F 87.9 °F 73.9 °F 76% 30.11 in 10.0 mi SW 10.4 mph - N/A   Clear
9:58 PM 81.0 °F 86.7 °F 75.0 °F 82% 30.12 in 10.0 mi SW 10.4 mph - N/A   Partly Cloudy
10:58 PM 81.0 °F 86.7 °F 75.0 °F 82% 30.13 in 10.0 mi SW 10.4 mph - N/A   Mostly Cloudy
11:58 PM 81.0 °F 87.3 °F 75.9 °F 85% 30.13 in 10.0 mi WSW 11.5 mph - N/A   Clear